Regional Weather Roundup
Issued by NWS

Home | Current Version | Previous Version | Text Only | Print | Product List | Glossary On
Versions: 1 2 3 4 5 6 7 8 9 10 11 12 13 14 15 16 17 18 19 20 21 22 23 24 25 26 27 28 29 30 31 32 33 34 35 36 37 38 39 40 41 42 43 44 45 46 47 48 49 50
000
ASUS43 KDTX 291610
RWRMI
MICHIGAN HOURLY REGIONAL WEATHER ROUNDUP
NATIONAL WEATHER SERVICE DETROIT/PONTIAC MI
1200 PM EDT SUN MAR 29 2015

NOTE: "FAIR" INDICATES FEW OR NO CLOUDS BELOW 12,000 FEET WITH NO
SIGNIFICANT WEATHER AND/OR OBSTRUCTION TO VISIBILITY.

MIZ047>049-052>055-059>063-066>070-074>076-081>083-291700-
SOUTHEAST LOWER MICHIGAN

CITY           SKY/WX    TMP DP  RH WIND       PRES   REMARKS
ADRIAN         MOSUNNY   37  18  46 SW20      30.19F
ALMA           MOSUNNY   40  17  39 S17G24    30.06F
ANN ARBOR      MOSUNNY   38  17  42 S15G25    30.17F
BAD AXE        SUNNY     37  12  35 SW15G25   30.09F
DETROIT CITY   SUNNY     38  15  39 S17G25    30.20F
DETROIT        PTSUNNY   40  15  36 S20G28    30.21F
FLINT          SUNNY     41  13  31 S17G28    30.12F
GROSSE ILE     SUNNY     36  19  51 S20G25    30.21F
HILLSDALE      MOSUNNY   37  17  44 S16G23    30.15F
HOWELL         MOSUNNY   39  14  36 S18G26    30.12F

CITY           SKY/WX    TMP DP  RH WIND       PRES   REMARKS
JACKSON        MOSUNNY   37  14  38 S22G29    30.13F
LAMBERTVILLE   MOSUNNY   37  18  44 SW10G21   30.23S
LANSING        PTSUNNY   40  15  36 S21G29    30.09F
LAPEER         NOT AVBL
MASON          MOSUNNY   37  15  39 S8G18     30.11F
MONROE         MOSUNNY   37  18  44 S17       30.21F
MT. CLEMENS    PTSUNNY   39  15  36 S20G25    30.15F
PONTIAC        PTSUNNY   36  14  40 S17G25    30.13F
PORT HOPE        N/A     38  14  37 SW10G21   30.06F
PORT HURON     SUNNY     36  18  48 S20G30    30.17F
TRI CITIES     SUNNY     40  13  33 S16G30    30.06F
YPSILANTI      SUNNY     41  17  38 S20       30.19F
$$
MIZ043>046-050>051-056>058-064>065-071>073-077>080-291700-
SOUTHWEST LOWER MICHIGAN

CITY           SKY/WX    TMP DP  RH WIND       PRES   REMARKS
BATTLE CREEK   PTSUNNY   40  16  37 S24G32    30.08F
BENTON HARBOR  CLOUDY    40  17  39 S22G30    30.06F
BIG RAPIDS     CLOUDY    36  14  41 S15G26    29.96F
COLDWATER      MOSUNNY   39  14  36 S13G20    30.12F
HOLLAND        CLOUDY    41  17  38 S17G28    30.03F
GRAND RAPIDS   PTSUNNY   39  15  37 S21       30.04F
KALAMAZOO      PTSUNNY   39  15  37 S22G31    30.09F
MARSHALL       PTSUNNY   38  16  40 S16G26    30.10F
MUSKEGON       CLOUDY    37  18  46 S24G32    30.00F
$$
MIZ016>042-291700-
NORTHERN LOWER MICHIGAN

CITY           SKY/WX    TMP DP  RH WIND       PRES   REMARKS
ALPENA         MOSUNNY   39   7  26 S20G30    29.94F
BEAVER ISLAND  PTSUNNY   35  21  57 S16G28    29.79F
BELLAIRE       MOSUNNY   40  10  30 S16G23    29.88F
CADILLAC       PTSUNNY   36  12  37 S18G28    29.88F
CHARLEVOIX     PTSUNNY   38  15  38 S23G32    29.87F
FRANKFORT      CLOUDY    41  17  37 S21G31    29.84F
GAYLORD        MOSUNNY   36  10  34 S21G36    29.85F
GRAYLING       MOSUNNY   38   7  27 S14G22    29.90F
HARBOR SPRINGS MOSUNNY   38  14  37 S13G22    29.85F
HOUGHTON LAKE  MOSUNNY   38   7  27 SW23G36   29.92F
MANISTEE       CLOUDY    39  19  45 S15G29    29.89F
OSCODA         SUNNY     37  16  42 S17G23    30.01F
PELLSTON       MOSUNNY   39  10  30 S17G26    29.85F
TRAVERSE CITY  PTSUNNY   40  17  39 S14G24    29.84F
$$
MIZ007>008-015-291700-
EASTERN UPPER MICHIGAN

CITY           SKY/WX    TMP DP  RH WIND       PRES   REMARKS
KINROSS        PTSUNNY   37  16  41 S13G22    29.82F
MACKINAC ISLAN PTSUNNY   36  14  40 S17G28    29.84F
NEWBERRY       CLOUDY    30  25  80 S21G36    29.74F
S. S. MARIE    PTSUNNY   35  15  44 S18       29.82F
$$
MIZ004>006-011>014-085-291700-
CENTRAL UPPER MICHIGAN

CITY           SKY/WX    TMP DP  RH WIND       PRES   REMARKS
MANISTIQUE     PTSUNNY   35  29  78 S21G32    29.75F
ESCANABA       CLOUDY    34  21  60 SW18G32   29.72F
MENOMINEE      CLOUDY    34  23  64 S20G26    29.73F
SAWYER-GWINN   LGT SNOW  30  25  80 S20G33    29.60F VSB 3/4
$$
MIZ001>003-009>011-084-291700-
WESTERN UPPER MICHIGAN

CITY           SKY/WX    TMP DP  RH WIND       PRES   REMARKS
IRON MOUNTAIN  LGT SNOW  30  24  78 S20G25    29.62F
HOUGHTON       MIX PCPN  32  29  88 S13       29.49F
COPPER HARBOR    N/A     32  29  88 SW14G29   29.51F
IRONWOOD       CLOUDY    34  28  80 SW17G31   29.47F
$$

ABBREVIATIONS USED IN REMARKS
   TC - TEMPERATURE IN CELSIUS
  WCI - WIND CHILL INDEX
   HX - HEAT INDEX
  VSB - VISIBILITY




USA.gov is the U.S. government's official web portal to all federal, state and local government web resources and services.